Regional Weather Roundup
Issued by NWS

Home | Current Version | Previous Version | Text Only | Print | Product List | Glossary On
Versions: 1 2 3 4 5 6 7 8 9 10 11 12 13 14 15 16 17 18 19 20 21 22 23 24 25 26 27
000
ASUS45 KSLC 271310
RWRUT

UTAH REGIONAL WEATHER ROUNDUP
NATIONAL WEATHER SERVICE SALT LAKE CITY UT
700 AM MDT THU APR 27 2017

UTZ001>011-023>025-271400-

NORTHERN UTAH

CITY           SKY/WX    TMP DP  RH WIND       PRES   REMARKS
BRIGHAM CITY   MOCLDY    40  27  59 W5        29.80S
DUGWAY         PTCLDY    37  33  83 NW6       29.83  WCI  33
HILL AFB       PTCLDY    37  28  71 W6        29.81R WCI  32
LOGAN          CLOUDY    41  29  62 W12       29.78R
OGDEN          CLEAR     37  28  70 NW8       29.80R WCI  31
SALT LAKE CITY MOCLDY    43  31  62 W13G24    29.81R
TOOELE VALLEY  MOCLDY    39  32  75 NW13G32   29.85R WCI  32
WENDOVER       CLEAR     42  20  41 CALM      29.85R
HEBER CITY     CLOUDY    36  30  80 S3        29.76R
WEST JORDAN    CLOUDY    43  37  79 NW14      29.83R

$$

UTZ011>015-024>027-271400-

CENTRAL/NORTHEAST UTAH

CITY           SKY/WX    TMP DP  RH WIND       PRES   REMARKS
PROVO AIRPORT  PTCLDY    41  31  67 N20G28    29.81R
MOAB/CANYONLAN MOCLDY    47  38  71 W6        29.66S
DELTA          MOCLDY    37  34  87 NW10      29.83R WCI  30
PRICE          PTCLDY    38  30  73 NW8       29.69F WCI  32
ROOSEVELT      CLEAR     41  32  70 W14       29.66S
VERNAL         CLOUDY    42  40  92 SE3       29.64S

$$

UTZ013>016-019>022-027-271400-

SOUTHERN UTAH

CITY           SKY/WX    TMP DP  RH WIND       PRES   REMARKS
BRYCE CANYON   LGT RAIN  36  32  85 NW21G28   29.81R FOG     WCI  25
CEDAR CITY     MOCLDY    39  36  89 VRB3      29.81R
MILFORD        LGT RAIN  41  38  89 N17       29.83R
ST GEORGE      MOSUNNY   62  37  39 W10       29.73R
HANKSVILLE     CLOUDY    50  34  53 W8        29.73R
BLANDING       CLOUDY    43  43  99 NE3       29.79R

$$

REGIONAL REPORTS     COLORADO/ARIZONA

CITY           SKY/WX    TMP DP  RH WIND       PRES   REMARKS
CRAIG, CO      LGT RAIN  39  35  86 SW3       29.63S
GRAND JUNCTION LGT RAIN  42  41  96 NW3       29.68R
RIFLE, CO      CLOUDY    41  39  93 CALM      29.66S
MONTROSE, CO   CLOUDY    39  37  92 E3        29.70S
CORTEZ, CO     LGT RAIN  43  42  97 NE7       29.72S
COLORADO CITY    N/A     48  36  61 W5        29.79S
PAGE, AZ       PTCLDY    54  37  52 CALM      29.70S
GRAND CANYON   MOCLDY    43  32  65 SW8       29.83R
KINGMAN, AZ    PTCLDY    55  39  54 SW9       29.75R
FLAGSTAFF, AZ  PTCLDY    47  31  53 SW15G23   29.81S

$$

REGIONAL REPORTS    NEVADA/IDAHO/WYOMING

CITY           SKY/WX    TMP DP  RH WIND       PRES   REMARKS
LAS VEGAS, NV  PTCLDY    71  23  16 NW24G30   29.70R
ELY, NY        PTCLDY    33  30  88 W6        29.89R WCI  28
ELKO, NV       CLOUDY    34  28  79 CALM      29.89S
POCATELLO, ID  CLOUDY    35  33  92 SW21G26   29.75R WCI  24
BURLEY, ID     CLEAR     36  30  79 W21G32    29.79R WCI  25
FORT BRIDGER,  CLOUDY    30  28  92 W18G30    29.72R WCI  18
EVANSTON, WY   CLEAR     28  22  78 W17G25    29.74R WCI  16
ROCK SPRINGS,  CLOUDY    32  28  85 W20       29.64R WCI  20
KEMMERER, WY     N/A     28  25  86 W21       29.67S WCI  15

$$




USA.gov is the U.S. government's official web portal to all federal, state and local government web resources and services.